Location: Kailua
(21.4020°N, 157.7390°W)
Time: 23:04:24
(UTC-10:00)

Daily predictions for brighter satellites

Satellite Brightness Start Highest point End
(mag) Time Altitude Azimuth Time Altitude Azimuth Time Altitude Azimuth
IUS-18 SRM-1 4.3 19:05:10 10° WNW 19:08:56 51° NNE 19:24:57 10° E
Cosmos 2100 Rocket 4.2 19:22:18 10° N 19:28:35 80° W 19:34:55 10° S
Atlas Centaur 2 2.9 19:25:10 10° SW 19:31:55 62° SSE 19:40:01 10° ENE
Cosmos 2123 Rocket 4.0 19:26:03 10° S 19:32:13 78° E 19:38:22 10° N
Fermi 3.8 19:28:52 10° WSW 19:32:55 61° SSE 19:36:56 10° E
Intelsat 5-2 Rocket 2.1 19:30:03 10° WNW 19:33:06 66° N 19:35:27 10° E
Cosmos 2016 Rocket 4.0 19:28:18 10° N 19:34:35 72° E 19:40:44 10° S
Palapa B4 Rocket 2.8 19:31:43 10° W 19:35:35 61° S 19:39:17 10° ESE
Cosmos 2237 Rocket 2.3 19:31:29 10° SSW 19:37:05 84° WNW 19:42:43 10° NNE
CZ-4B DEB 3.1 19:34:41 10° SSE 19:37:54 50° ENE 19:41:09 10° N
Meteor 2-15 4.4 19:32:43 10° S 19:38:43 67° E 19:44:41 10° NNE
Okean 1 3.4 19:35:33 10° S 19:39:37 90° NNW 19:43:41 10° N
NOAA 12 4.3 19:35:04 10° S 19:40:17 77° WSW 19:45:32 10° NNW
Milstar 3 Cent rocket 3.5 19:32:37 10° WNW 19:42:22 51° N 19:47:43 10° ENE
Cosmos 1400 Rocket 3.0 19:40:03 10° N 19:43:56 74° W 19:47:50 10° S
Lacrosse 5 rocket 2.9 19:40:57 10° WSW 19:44:24 37° NW 19:48:00 10° NNE
HJ-1C 3.8 19:41:25 10° S 19:44:40 63° W 19:47:56 10° NNW
SL-24 R/B - RUBIN 2 3.9 19:41:59 10° SSW 19:46:52 85° ESE 19:52:27 10° NNE
Helios 1A 4.5 19:43:21 10° SSW 19:47:14 38° W 19:51:10 10° NNW
ASC 2 Rocket 4.2 19:42:21 10° W 19:50:46 68° SSW 19:55:32 15° ESE
Aureole 2 Rocket 4.5 19:49:12 13° SE 19:50:57 16° E 19:53:24 10° ENE
Cosmos 2278 Rocket 3.4 19:50:41 10° NNE 19:55:12 24° ENE 19:58:25 15° ESE
Cosmos 1455 Rocket 4.5 19:51:28 10° NNW 19:55:37 40° W 19:59:47 10° SSW
Cosmos 2219 Rocket 4.3 19:53:57 10° SW 19:58:51 30° WNW 20:03:47 10° N
Cosmos 1500 4.2 19:58:41 10° NNE 20:02:05 29° E 20:03:52 20° SE
SL-16 R/B 2.1 19:57:55 10° S 20:03:30 66° ESE 20:09:06 10° NNE
Cosmos 2233 Rocket 4.3 19:59:57 10° N 20:05:55 47° E 20:11:05 13° SSE
PSLV R/B 4.4 20:03:57 10° WSW 20:07:19 46° NW 20:10:46 10° NE
deb Chang Zheng 4 3.9 20:04:12 10° NNE 20:08:22 43° E 20:12:29 10° S
Meteor 1-13 Rocket 4.3 20:03:30 10° S 20:09:24 86° W 20:15:11 10° N
CZ-4 DEB 3.3 20:08:34 26° SE 20:09:53 40° ENE 20:12:56 10° N
Cosmos 1743 4.1 20:07:34 10° NNE 20:10:25 20° E 20:10:37 20° E
Cosmos 494 Rocket 3.9 20:08:26 10° S 20:13:26 58° ESE 20:18:27 10° NNE
Tiangong 1 0.9 20:11:37 10° NW 20:14:46 87° NE 20:15:51 38° SE
BREEZE-M R/B 3.8 20:11:45 10° NNW 20:15:12 44° NE 20:18:30 23° ESE
TIMED 4.4 20:15:28 10° NNW 20:19:50 89° ENE 20:22:44 21° SSE
H-2A R/B 3.1 20:22:43 25° E 20:23:09 25° ENE 20:26:38 10° NNE
Cosmos 1606 Rocket 4.0 20:21:55 10° NNE 20:26:05 40° E 20:27:05 35° ESE
USA 186 1.5 20:25:44 41° S 20:26:41 87° WSW 20:29:39 10° N
GPS 2-15 Rocket1 3.1 20:23:41 10° WSW 20:28:30 70° S 20:30:34 34° E
Resurs 01 Rocket 4.3 20:26:25 10° SW 20:29:19 17° W 20:32:14 10° NW
Cosmos 1603 4.1 20:29:53 26° SSE 20:32:16 39° ESE 20:37:26 10° NE
H-2A R/B 2.7 20:30:24 30° S 20:32:16 87° WSW 20:36:14 10° NNW
Meteor 1-19 Rocket 4.4 20:27:51 10° S 20:33:32 75° W 20:39:08 10° N
Skynet4D Del rocket 3.4 20:31:22 10° WNW 20:36:50 79° SSW 20:38:47 40° ESE
Meteor 2-4 Rocket 3.7 20:32:27 10° S 20:38:11 83° E 20:44:04 10° N
OTV 4 2.5 20:48:20 10° NNW 20:50:07 22° N 20:50:07 22° N
Hubble Space Telescope 0.7 20:47:14 10° WNW 20:51:22 72° SSW 20:51:25 72° SSW
SeaSat 1 3.8 20:52:34 23° ENE 20:52:34 23° ENE 20:56:13 10° N
Cosmos 2297 4.1 20:51:38 10° N 20:57:05 45° ENE 20:57:30 44° E
Cosmos 2098 Rocket 4.4 20:54:45 10° NNW 20:58:12 34° W 21:01:05 17° SSW
Delta 168 3.3 20:54:38 10° W 20:58:22 62° N 20:59:26 47° NE
Cosmos 2228 4.2 20:55:52 10° NNE 20:58:40 31° NE 20:58:40 31° NE
Cosmos 1844 Rocket 4.4 20:59:21 10° NW 21:04:03 28° WSW 21:08:00 13° SSW
ALOS 3.8 21:02:13 17° SSW 21:05:01 32° W 21:09:10 10° NW
CZ-4B R/B 3.8 21:00:00 10° NNE 21:04:12 50° ENE 21:04:12 50° ENE
Cosmos 1939 Rocket 3.5 21:07:20 50° NNE 21:07:20 50° NNE 21:10:32 10° N
ATLAS 3B CENTAUR R/B 3.6 21:05:55 10° W 21:10:54 42° SSW 21:13:05 37° SSE
Delta 202 4.4 21:01:30 10° W 21:11:39 72° S 21:13:27 54° ESE
Cosmos 1891 Rocket 4.4 21:06:55 10° N 21:12:50 58° E 21:12:50 58° E
Centaur D AC-28 2.0 21:11:11 10° WNW 21:14:40 58° N 21:14:40 58° N
Envisat 3.1 21:17:25 63° NNE 21:17:25 63° NNE 21:21:52 10° N
ERS-1 Rocket 3.6 21:16:52 44° SW 21:17:52 51° W 21:22:44 10° NNW
Atlas Centaur 2 3.4 21:14:16 10° W 21:21:55 62° NNW 21:28:43 17° ENE
Tsikada Rocket 3.9 21:21:26 60° S 21:22:43 90° W 21:29:08 10° N
COSMOS 2455 2.7 21:22:01 64° SSW 21:23:02 89° WNW 21:29:04 10° NNE
Cosmos 1110 Rocket 4.3 21:24:35 10° NNW 21:29:32 64° W 21:29:32 64° W
Meteor 1-15 Rocket 4.3 21:29:06 10° N 21:34:21 74° WNW 21:34:21 74° WNW
Cosmos 1513 Rocket 4.4 21:30:41 10° N 21:36:55 78° W 21:37:02 77° WSW
ATLAS 3B R/B 3.3 21:39:25 50° ENE 21:39:25 50° ENE 21:45:09 10° NNE
Cosmos 2278 Rocket 3.7 21:34:19 10° NW 21:39:06 29° WSW 21:40:18 26° SW
Cosmos 2285 Rocket 4.1 21:38:11 10° NNW 21:44:19 72° W 21:44:19 72° W
USA 234 4.1 21:49:52 37° NE 21:49:52 37° NE 21:55:34 10° NNW
Gbstr 26 Del rocket 4.5 21:44:22 10° NNW 21:52:13 69° NE 21:52:15 69° NE
ATLAS 5 CENTAUR R/B4.222:31:20E22:31:20E22:07:57W
Milstar 3 Cent rocket 4.0 22:15:16 10° WNW 22:17:32 23° WNW 22:17:32 23° WNW
CZ-3A R/B 4.4 21:44:52 10° WSW 22:41:16 72° SW 22:41:16 72° SW
Atlas Centaur 2 4.0 23:04:47 10° WNW 23:11:24 43° NNW 23:11:24 43° NNW
